{"data":{"norad_id":65288,"intl_designator":"2025-184R","name":"STARLINK-35018","alt_names":[],"object_type":"PAYLOAD","status":"ACTIVE","operator":null,"country":"US","launch_date":"2025-08-22","launch_site_code":"AFWTR","launch_vehicle":null,"mission":null,"orbit_class":"UNKNOWN","rcs_meters":null,"size_class":null,"mass_kg":null,"dimensions":null,"purposes":["comms"],"wikipedia_slug":null,"has_3d_model":false,"image_url":null,"decayed_at":null,"tle_current":{"epoch":"2026-09-20T13:43:58.906848Z","epoch_age_seconds":111301,"freshness":"FRESH","line1":"1 65288U 25184R   26263.57220957  .00005057  00000+0  15890-3 0  9997","line2":"2 65288  97.2847 311.5142 0000946  83.4244 276.7106 15.33438775 60730","mean_motion":15.33438775,"eccentricity":9.46e-5,"inclination_deg":97.2847,"raan_deg":311.5142,"arg_perigee_deg":83.4244,"mean_anomaly_deg":276.7106,"bstar":0.0001589,"rev_number":6073,"period_min":93.906585869397,"perigee_km":464.91428186451,"apogee_km":466.20910965775,"semimajor_km":6843.6986957611,"source":"CELESTRAK","updated_at":"2026-09-21T09:00:35.566730Z"}}}